Time,TemperatureF,DewpointF,PressureIn,WindDirection,WindDirectionDegrees,WindSpeedMPH,WindSpeedGustMPH,Humidity,HourlyPrecipIn,Conditions,Clouds,dailyrainin,SoftwareType,DateUTC
2013-05-30 00:02:00,63.9,63.5,29.64,North,-999,-999.0,-999.0,99,-99.99,,,-99.99,meteohub,2013-05-30 05:02:00,
2013-05-30 00:07:00,63.9,63.5,29.64,North,-999,-999.0,-999.0,99,-99.99,,,-99.99,meteohub,2013-05-30 05:07:00,
2013-05-30 00:12:00,63.7,63.3,29.64,North,-999,-999.0,-999.0,99,-99.99,,,-99.99,meteohub,2013-05-30 05:12:00,
2013-05-30 00:17:00,63.7,63.3,29.64,North,-999,-999.0,-999.0,99,-99.99,,,-99.99,meteohub,2013-05-30 05:17:00,
2013-05-30 00:22:00,63.5,63.1,29.66,North,-999,-999.0,-999.0,99,-99.99,,,-99.99,meteohub,2013-05-30 05:22:00,
2013-05-30 00:27:00,63.3,63.0,29.65,North,-999,-999.0,-999.0,99,-99.99,,,-99.99,meteohub,2013-05-30 05:27:00,
2013-05-30 00:32:00,63.1,62.8,29.63,North,-999,-999.0,-999.0,99,-99.99,,,-99.99,meteohub,2013-05-30 05:32:00,
2013-05-30 00:37:00,63.0,62.6,29.65,North,-999,-999.0,-999.0,99,-99.99,,,-99.99,meteohub,2013-05-30 05:37:00,
2013-05-30 00:42:00,62.8,62.4,29.66,North,-999,-999.0,-999.0,99,-99.99,,,-99.99,meteohub,2013-05-30 05:42:00,
2013-05-30 00:47:00,62.8,62.4,29.65,North,-999,-999.0,-999.0,99,-99.99,,,-99.99,meteohub,2013-05-30 05:47:00,
2013-05-30 00:52:00,62.8,62.4,29.67,North,-999,-999.0,-999.0,99,-99.99,,,-99.99,meteohub,2013-05-30 05:52:00,
2013-05-30 00:57:00,62.6,62.2,29.66,North,-999,-999.0,-999.0,99,-99.99,,,-99.99,meteohub,2013-05-30 05:57:00,
2013-05-30 01:02:00,62.6,62.2,29.67,North,-999,-999.0,-999.0,99,-99.99,,,-99.99,meteohub,2013-05-30 06:02:00,
2013-05-30 01:07:00,62.4,62.1,29.65,North,-999,-999.0,-999.0,99,-99.99,,,-99.99,meteohub,2013-05-30 06:07:00,
2013-05-30 01:12:00,62.6,62.2,29.65,North,-999,-999.0,-999.0,99,-99.99,,,-99.99,meteohub,2013-05-30 06:12:00,
2013-05-30 01:17:00,62.4,62.1,29.65,North,-999,-999.0,-999.0,99,-99.99,,,-99.99,meteohub,2013-05-30 06:17:00,
2013-05-30 01:22:00,62.4,62.1,29.65,North,-999,-999.0,-999.0,99,-99.99,,,-99.99,meteohub,2013-05-30 06:22:00,
2013-05-30 01:27:00,62.4,62.1,29.64,North,-999,-999.0,-999.0,99,-99.99,,,-99.99,meteohub,2013-05-30 06:27:00,
2013-05-30 01:32:00,62.6,62.2,29.65,North,-999,-999.0,-999.0,99,-99.99,,,-99.99,meteohub,2013-05-30 06:32:00,
2013-05-30 01:37:00,62.6,62.2,29.65,North,-999,-999.0,-999.0,99,-99.99,,,-99.99,meteohub,2013-05-30 06:37:00,
2013-05-30 01:42:00,62.8,62.4,29.66,North,-999,-999.0,-999.0,99,-99.99,,,-99.99,meteohub,2013-05-30 06:42:00,
2013-05-30 01:47:00,63.0,62.6,29.65,North,-999,-999.0,-999.0,99,-99.99,,,-99.99,meteohub,2013-05-30 06:47:00,
2013-05-30 01:52:00,62.8,62.4,29.66,North,-999,-999.0,-999.0,99,-99.99,,,-99.99,meteohub,2013-05-30 06:52:00,
2013-05-30 01:57:00,62.8,62.4,29.65,North,-999,-999.0,-999.0,99,-99.99,,,-99.99,meteohub,2013-05-30 06:57:00,
2013-05-30 02:02:00,63.0,62.6,29.65,North,-999,-999.0,-999.0,99,-99.99,,,-99.99,meteohub,2013-05-30 07:02:00,
2013-05-30 02:07:00,63.0,62.6,29.65,North,-999,-999.0,-999.0,99,-99.99,,,-99.99,meteohub,2013-05-30 07:07:00,
2013-05-30 02:12:00,63.3,63.0,29.65,North,-999,-999.0,-999.0,99,-99.99,,,-99.99,meteohub,2013-05-30 07:12:00,
2013-05-30 02:17:00,63.5,63.1,29.65,North,-999,-999.0,-999.0,99,-99.99,,,-99.99,meteohub,2013-05-30 07:17:00,
2013-05-30 02:22:00,63.5,63.1,29.66,North,-999,-999.0,-999.0,99,-99.99,,,-99.99,meteohub,2013-05-30 07:22:00,
2013-05-30 02:27:00,63.3,63.0,29.67,North,-999,-999.0,-999.0,99,-99.99,,,-99.99,meteohub,2013-05-30 07:27:00,
2013-05-30 02:32:00,63.1,62.8,29.67,North,-999,-999.0,-999.0,99,-99.99,,,-99.99,meteohub,2013-05-30 07:32:00,
2013-05-30 02:37:00,63.1,62.8,29.67,North,-999,-999.0,-999.0,99,-99.99,,,-99.99,meteohub,2013-05-30 07:37:00,
2013-05-30 02:42:00,63.1,62.8,29.66,North,-999,-999.0,-999.0,99,-99.99,,,-99.99,meteohub,2013-05-30 07:42:00,
2013-05-30 02:47:00,63.0,62.6,29.65,North,-999,-999.0,-999.0,99,-99.99,,,-99.99,meteohub,2013-05-30 07:47:00,
2013-05-30 02:52:00,63.0,62.6,29.64,North,-999,-999.0,-999.0,99,-99.99,,,-99.99,meteohub,2013-05-30 07:52:00,
2013-05-30 02:57:00,63.0,62.6,29.63,North,-999,-999.0,-999.0,99,-99.99,,,-99.99,meteohub,2013-05-30 07:57:00,
2013-05-30 03:02:00,62.8,62.4,29.64,North,-999,-999.0,-999.0,99,-99.99,,,-99.99,meteohub,2013-05-30 08:02:00,
2013-05-30 03:07:00,62.8,62.4,29.63,North,-999,-999.0,-999.0,99,-99.99,,,-99.99,meteohub,2013-05-30 08:07:00,
2013-05-30 03:12:00,62.8,62.4,29.62,North,-999,-999.0,-999.0,99,-99.99,,,-99.99,meteohub,2013-05-30 08:12:00,
2013-05-30 03:17:00,62.8,62.4,29.63,North,-999,-999.0,-999.0,99,-99.99,,,-99.99,meteohub,2013-05-30 08:17:00,
2013-05-30 03:22:00,62.8,62.4,29.63,North,-999,-999.0,-999.0,99,-99.99,,,-99.99,meteohub,2013-05-30 08:22:00,
2013-05-30 03:27:00,62.8,62.4,29.62,North,-999,-999.0,-999.0,99,-99.99,,,-99.99,meteohub,2013-05-30 08:27:00,
2013-05-30 03:32:00,62.8,62.4,29.63,North,-999,-999.0,-999.0,99,-99.99,,,-99.99,meteohub,2013-05-30 08:32:00,
2013-05-30 03:37:00,62.6,62.2,29.62,North,-999,-999.0,-999.0,99,-99.99,,,-99.99,meteohub,2013-05-30 08:37:00,
2013-05-30 03:42:00,62.6,62.2,29.62,North,-999,-999.0,-999.0,99,-99.99,,,-99.99,meteohub,2013-05-30 08:42:00,
2013-05-30 03:47:00,62.6,62.2,29.61,North,-999,-999.0,-999.0,99,-99.99,,,-99.99,meteohub,2013-05-30 08:47:00,
2013-05-30 03:52:00,62.6,62.2,29.62,North,-999,-999.0,-999.0,99,-99.99,,,-99.99,meteohub,2013-05-30 08:52:00,
2013-05-30 03:57:00,62.6,62.2,29.62,North,-999,-999.0,-999.0,99,-99.99,,,-99.99,meteohub,2013-05-30 08:57:00,
2013-05-30 04:02:00,62.6,62.2,29.61,North,-999,-999.0,-999.0,99,-99.99,,,-99.99,meteohub,2013-05-30 09:02:00,
2013-05-30 04:07:00,62.6,62.2,29.61,North,-999,-999.0,-999.0,99,-99.99,,,-99.99,meteohub,2013-05-30 09:07:00,
2013-05-30 04:12:00,62.6,62.2,29.60,North,-999,-999.0,-999.0,99,-99.99,,,-99.99,meteohub,2013-05-30 09:12:00,
2013-05-30 04:17:00,62.6,62.2,29.60,North,-999,-999.0,-999.0,99,-99.99,,,-99.99,meteohub,2013-05-30 09:17:00,
2013-05-30 04:22:00,62.6,62.2,29.61,North,-999,-999.0,-999.0,99,-99.99,,,-99.99,meteohub,2013-05-30 09:22:00,
2013-05-30 04:29:00,62.6,62.2,29.60,North,-999,-999.0,-999.0,99,-99.99,,,-99.99,meteohub,2013-05-30 09:29:00,
2013-05-30 04:35:00,62.6,62.2,29.61,North,-999,-999.0,-999.0,99,-99.99,,,-99.99,meteohub,2013-05-30 09:35:00,
2013-05-30 04:41:00,62.6,62.2,29.61,North,-999,-999.0,-999.0,99,-99.99,,,-99.99,meteohub,2013-05-30 09:41:00,
2013-05-30 04:47:00,62.8,62.4,29.62,North,-999,-999.0,-999.0,99,-99.99,,,-99.99,meteohub,2013-05-30 09:47:00,
2013-05-30 04:52:00,62.8,62.4,29.62,North,-999,-999.0,-999.0,99,-99.99,,,-99.99,meteohub,2013-05-30 09:52:00,
2013-05-30 04:57:00,63.0,62.6,29.63,North,-999,-999.0,-999.0,99,-99.99,,,-99.99,meteohub,2013-05-30 09:57:00,
2013-05-30 05:02:00,63.1,62.8,29.64,North,-999,-999.0,-999.0,99,-99.99,,,-99.99,meteohub,2013-05-30 10:02:00,
2013-05-30 05:07:00,63.1,62.8,29.64,North,-999,-999.0,-999.0,99,-99.99,,,-99.99,meteohub,2013-05-30 10:07:00,
2013-05-30 05:12:00,63.1,62.8,29.64,North,-999,-999.0,-999.0,99,-99.99,,,-99.99,meteohub,2013-05-30 10:12:00,
2013-05-30 05:17:00,63.1,62.8,29.63,North,-999,-999.0,-999.0,99,-99.99,,,-99.99,meteohub,2013-05-30 10:17:00,
2013-05-30 05:22:00,63.1,62.8,29.63,North,-999,-999.0,-999.0,99,-99.99,,,-99.99,meteohub,2013-05-30 10:22:00,
2013-05-30 05:27:00,63.1,62.8,29.62,North,-999,-999.0,-999.0,99,-99.99,,,-99.99,meteohub,2013-05-30 10:27:00,
2013-05-30 05:32:00,63.0,62.6,29.63,North,-999,-999.0,-999.0,99,-99.99,,,-99.99,meteohub,2013-05-30 10:32:00,
2013-05-30 05:37:00,63.0,62.6,29.63,North,-999,-999.0,-999.0,99,-99.99,,,-99.99,meteohub,2013-05-30 10:37:00,
2013-05-30 05:42:00,63.0,62.6,29.63,North,-999,-999.0,-999.0,99,-99.99,,,-99.99,meteohub,2013-05-30 10:42:00,
2013-05-30 05:47:00,63.0,62.6,29.62,North,-999,-999.0,-999.0,99,-99.99,,,-99.99,meteohub,2013-05-30 10:47:00,
2013-05-30 05:52:00,63.0,62.6,29.61,North,-999,-999.0,-999.0,99,-99.99,,,-99.99,meteohub,2013-05-30 10:52:00,
2013-05-30 05:57:00,63.1,62.8,29.61,North,-999,-999.0,-999.0,99,-99.99,,,-99.99,meteohub,2013-05-30 10:57:00,
2013-05-30 06:02:00,63.1,62.8,29.61,North,-999,-999.0,-999.0,99,-99.99,,,-99.99,meteohub,2013-05-30 11:02:00,
2013-05-30 06:07:00,63.3,63.0,29.60,North,-999,-999.0,-999.0,99,-99.99,,,-99.99,meteohub,2013-05-30 11:07:00,
2013-05-30 06:12:00,63.3,63.0,29.59,North,-999,-999.0,-999.0,99,-99.99,,,-99.99,meteohub,2013-05-30 11:12:00,
2013-05-30 06:17:00,63.5,63.1,29.59,North,-999,-999.0,-999.0,99,-99.99,,,-99.99,meteohub,2013-05-30 11:17:00,
2013-05-30 06:22:00,63.5,63.1,29.59,North,-999,-999.0,-999.0,99,-99.99,,,-99.99,meteohub,2013-05-30 11:22:00,
2013-05-30 06:27:00,63.5,63.1,29.59,North,-999,-999.0,-999.0,99,-99.99,,,-99.99,meteohub,2013-05-30 11:27:00,
2013-05-30 06:32:00,63.5,63.1,29.60,North,-999,-999.0,-999.0,99,-99.99,,,-99.99,meteohub,2013-05-30 11:32:00,
2013-05-30 06:37:00,63.5,63.1,29.62,North,-999,-999.0,-999.0,99,-99.99,,,-99.99,meteohub,2013-05-30 11:37:00,
2013-05-30 06:42:00,63.5,63.1,29.60,North,-999,-999.0,-999.0,99,-99.99,,,-99.99,meteohub,2013-05-30 11:42:00,
2013-05-30 06:47:00,63.5,63.1,29.60,North,-999,-999.0,-999.0,99,-99.99,,,-99.99,meteohub,2013-05-30 11:47:00,
2013-05-30 06:52:00,63.5,63.1,29.59,North,-999,-999.0,-999.0,99,-99.99,,,-99.99,meteohub,2013-05-30 11:52:00,
2013-05-30 06:57:00,63.5,63.1,29.60,North,-999,-999.0,-999.0,99,-99.99,,,-99.99,meteohub,2013-05-30 11:57:00,
2013-05-30 07:02:00,63.5,63.1,29.60,North,-999,-999.0,-999.0,99,-99.99,,,-99.99,meteohub,2013-05-30 12:02:00,
2013-05-30 07:07:00,63.3,63.0,29.60,North,-999,-999.0,-999.0,99,-99.99,,,-99.99,meteohub,2013-05-30 12:07:00,
2013-05-30 07:12:00,63.3,63.0,29.61,North,-999,-999.0,-999.0,99,-99.99,,,-99.99,meteohub,2013-05-30 12:12:00,
2013-05-30 07:17:00,63.3,63.0,29.62,North,-999,-999.0,-999.0,99,-99.99,,,-99.99,meteohub,2013-05-30 12:17:00,
2013-05-30 07:22:00,63.3,63.0,29.62,North,-999,-999.0,-999.0,99,-99.99,,,-99.99,meteohub,2013-05-30 12:22:00,
2013-05-30 07:27:00,63.3,63.0,29.62,North,-999,-999.0,-999.0,99,-99.99,,,-99.99,meteohub,2013-05-30 12:27:00,
2013-05-30 07:32:00,63.3,63.0,29.63,North,-999,-999.0,-999.0,99,-99.99,,,-99.99,meteohub,2013-05-30 12:32:00,
2013-05-30 07:37:00,63.3,63.0,29.63,North,-999,-999.0,-999.0,99,-99.99,,,-99.99,meteohub,2013-05-30 12:37:00,
2013-05-30 07:42:00,63.3,63.0,29.63,North,-999,-999.0,-999.0,99,-99.99,,,-99.99,meteohub,2013-05-30 12:42:00,
2013-05-30 07:47:00,63.3,63.0,29.63,North,-999,-999.0,-999.0,99,-99.99,,,-99.99,meteohub,2013-05-30 12:47:00,
2013-05-30 07:52:00,63.3,63.0,29.63,North,-999,-999.0,-999.0,99,-99.99,,,-99.99,meteohub,2013-05-30 12:52:00,
2013-05-30 07:57:00,63.1,62.8,29.63,North,-999,-999.0,-999.0,99,-99.99,,,-99.99,meteohub,2013-05-30 12:57:00,
2013-05-30 08:02:00,63.3,63.0,29.63,North,-999,-999.0,-999.0,99,-99.99,,,-99.99,meteohub,2013-05-30 13:02:00,
2013-05-30 08:07:00,63.3,63.0,29.63,North,-999,-999.0,-999.0,99,-99.99,,,-99.99,meteohub,2013-05-30 13:07:00,
2013-05-30 08:12:00,63.3,63.0,29.63,North,-999,-999.0,-999.0,99,-99.99,,,-99.99,meteohub,2013-05-30 13:12:00,
2013-05-30 08:17:00,63.3,63.0,29.63,North,-999,-999.0,-999.0,99,-99.99,,,-99.99,meteohub,2013-05-30 13:17:00,
2013-05-30 08:22:00,63.3,63.0,29.63,North,-999,-999.0,-999.0,99,-99.99,,,-99.99,meteohub,2013-05-30 13:22:00,
2013-05-30 08:27:00,63.3,63.0,29.64,North,-999,-999.0,-999.0,99,-99.99,,,-99.99,meteohub,2013-05-30 13:27:00,
2013-05-30 08:32:00,63.3,63.0,29.65,North,-999,-999.0,-999.0,99,-99.99,,,-99.99,meteohub,2013-05-30 13:32:00,
2013-05-30 08:37:00,63.3,63.0,29.63,North,-999,-999.0,-999.0,99,-99.99,,,-99.99,meteohub,2013-05-30 13:37:00,
2013-05-30 08:42:00,63.5,63.1,29.64,North,-999,-999.0,-999.0,99,-99.99,,,-99.99,meteohub,2013-05-30 13:42:00,
2013-05-30 08:47:00,63.5,63.1,29.63,North,-999,-999.0,-999.0,99,-99.99,,,-99.99,meteohub,2013-05-30 13:47:00,
2013-05-30 08:52:00,63.7,63.3,29.64,North,-999,-999.0,-999.0,99,-99.99,,,-99.99,meteohub,2013-05-30 13:52:00,
2013-05-30 08:57:00,63.7,63.3,29.63,North,-999,-999.0,-999.0,99,-99.99,,,-99.99,meteohub,2013-05-30 13:57:00,
2013-05-30 09:02:00,63.7,63.3,29.63,North,-999,-999.0,-999.0,99,-99.99,,,-99.99,meteohub,2013-05-30 14:02:00,
2013-05-30 09:07:00,63.5,63.1,29.64,North,-999,-999.0,-999.0,99,-99.99,,,-99.99,meteohub,2013-05-30 14:07:00,
2013-05-30 09:12:00,63.5,63.1,29.66,North,-999,-999.0,-999.0,99,-99.99,,,-99.99,meteohub,2013-05-30 14:12:00,
2013-05-30 09:17:00,63.3,63.0,29.65,North,-999,-999.0,-999.0,99,-99.99,,,-99.99,meteohub,2013-05-30 14:17:00,
2013-05-30 09:22:00,63.1,62.8,29.64,North,-999,-999.0,-999.0,99,-99.99,,,-99.99,meteohub,2013-05-30 14:22:00,
2013-05-30 09:27:00,63.1,62.8,29.63,North,-999,-999.0,-999.0,99,-99.99,,,-99.99,meteohub,2013-05-30 14:27:00,
2013-05-30 09:32:00,62.8,62.4,29.63,North,-999,-999.0,-999.0,99,-99.99,,,-99.99,meteohub,2013-05-30 14:32:00,
2013-05-30 09:37:00,62.8,62.4,29.64,North,-999,-999.0,-999.0,99,-99.99,,,-99.99,meteohub,2013-05-30 14:37:00,
2013-05-30 09:42:00,62.6,62.2,29.64,North,-999,-999.0,-999.0,99,-99.99,,,-99.99,meteohub,2013-05-30 14:42:00,
2013-05-30 09:47:00,62.6,62.2,29.62,North,-999,-999.0,-999.0,99,-99.99,,,-99.99,meteohub,2013-05-30 14:47:00,
2013-05-30 09:52:00,62.6,62.2,29.62,North,-999,-999.0,-999.0,99,-99.99,,,-99.99,meteohub,2013-05-30 14:52:00,
2013-05-30 09:57:00,62.6,62.2,29.63,North,-999,-999.0,-999.0,99,-99.99,,,-99.99,meteohub,2013-05-30 14:57:00,
2013-05-30 10:04:00,62.6,62.2,29.64,North,-999,-999.0,-999.0,99,-99.99,,,-99.99,meteohub,2013-05-30 15:04:00,
2013-05-30 10:10:00,62.6,62.2,29.65,North,-999,-999.0,-999.0,99,-99.99,,,-99.99,meteohub,2013-05-30 15:10:00,
2013-05-30 10:16:00,62.6,62.2,29.66,North,-999,-999.0,-999.0,99,-99.99,,,-99.99,meteohub,2013-05-30 15:16:00,
2013-05-30 10:22:00,62.6,62.2,29.66,North,-999,-999.0,-999.0,99,-99.99,,,-99.99,meteohub,2013-05-30 15:22:00,
2013-05-30 10:27:00,62.6,62.2,29.66,North,-999,-999.0,-999.0,99,-99.99,,,-99.99,meteohub,2013-05-30 15:27:00,
2013-05-30 10:32:00,62.4,62.1,29.66,North,-999,-999.0,-999.0,99,-99.99,,,-99.99,meteohub,2013-05-30 15:32:00,
2013-05-30 10:37:00,62.2,61.9,29.66,North,-999,-999.0,-999.0,99,-99.99,,,-99.99,meteohub,2013-05-30 15:37:00,
2013-05-30 10:42:00,62.2,61.9,29.66,North,-999,-999.0,-999.0,99,-99.99,,,-99.99,meteohub,2013-05-30 15:42:00,
2013-05-30 10:47:00,62.2,61.9,29.65,North,-999,-999.0,-999.0,99,-99.99,,,-99.99,meteohub,2013-05-30 15:47:00,
2013-05-30 10:52:00,62.1,61.7,29.65,North,-999,-999.0,-999.0,99,-99.99,,,-99.99,meteohub,2013-05-30 15:52:00,
2013-05-30 10:57:00,62.1,61.7,29.65,North,-999,-999.0,-999.0,99,-99.99,,,-99.99,meteohub,2013-05-30 15:57:00,
2013-05-30 11:02:00,62.2,61.9,29.64,North,-999,-999.0,-999.0,99,-99.99,,,-99.99,meteohub,2013-05-30 16:02:00,
2013-05-30 11:07:00,62.2,61.9,29.65,North,-999,-999.0,-999.0,99,-99.99,,,-99.99,meteohub,2013-05-30 16:07:00,
2013-05-30 11:12:00,62.4,62.1,29.64,North,-999,-999.0,-999.0,99,-99.99,,,-99.99,meteohub,2013-05-30 16:12:00,
2013-05-30 11:17:00,62.6,62.2,29.64,North,-999,-999.0,-999.0,99,-99.99,,,-99.99,meteohub,2013-05-30 16:17:00,
2013-05-30 11:22:00,62.8,62.4,29.65,North,-999,-999.0,-999.0,99,-99.99,,,-99.99,meteohub,2013-05-30 16:22:00,
2013-05-30 11:27:00,62.8,62.4,29.65,North,-999,-999.0,-999.0,99,-99.99,,,-99.99,meteohub,2013-05-30 16:27:00,
2013-05-30 11:32:00,63.0,62.6,29.66,North,-999,-999.0,-999.0,99,-99.99,,,-99.99,meteohub,2013-05-30 16:32:00,
2013-05-30 11:37:00,63.0,62.6,29.69,North,-999,-999.0,-999.0,99,-99.99,,,-99.99,meteohub,2013-05-30 16:37:00,
2013-05-30 11:42:00,63.0,62.6,29.69,North,-999,-999.0,-999.0,99,-99.99,,,-99.99,meteohub,2013-05-30 16:42:00,
2013-05-30 11:47:00,63.0,62.6,29.70,North,-999,-999.0,-999.0,99,-99.99,,,-99.99,meteohub,2013-05-30 16:47:00,
2013-05-30 11:52:00,63.0,62.6,29.69,North,-999,-999.0,-999.0,99,-99.99,,,-99.99,meteohub,2013-05-30 16:52:00,
2013-05-30 11:57:00,62.6,62.2,29.70,North,-999,-999.0,-999.0,99,-99.99,,,-99.99,meteohub,2013-05-30 16:57:00,
2013-05-30 12:02:00,62.4,62.1,29.70,North,-999,-999.0,-999.0,99,-99.99,,,-99.99,meteohub,2013-05-30 17:02:00,
2013-05-30 12:07:00,62.2,61.9,29.68,North,-999,-999.0,-999.0,99,-99.99,,,-99.99,meteohub,2013-05-30 17:07:00,
2013-05-30 12:12:00,62.1,61.7,29.65,North,-999,-999.0,-999.0,99,-99.99,,,-99.99,meteohub,2013-05-30 17:12:00,
2013-05-30 12:17:00,62.2,61.9,29.65,North,-999,-999.0,-999.0,99,-99.99,,,-99.99,meteohub,2013-05-30 17:17:00,
2013-05-30 12:22:00,62.4,62.1,29.65,North,-999,-999.0,-999.0,99,-99.99,,,-99.99,meteohub,2013-05-30 17:22:00,
2013-05-30 12:27:00,62.4,62.1,29.62,North,-999,-999.0,-999.0,99,-99.99,,,-99.99,meteohub,2013-05-30 17:27:00,
2013-05-30 12:32:00,62.4,62.1,29.60,North,-999,-999.0,-999.0,99,-99.99,,,-99.99,meteohub,2013-05-30 17:32:00,
2013-05-30 12:37:00,62.4,62.1,29.59,North,-999,-999.0,-999.0,99,-99.99,,,-99.99,meteohub,2013-05-30 17:37:00,
2013-05-30 12:42:00,62.4,62.1,29.59,North,-999,-999.0,-999.0,99,-99.99,,,-99.99,meteohub,2013-05-30 17:42:00,
2013-05-30 12:47:00,62.4,62.1,29.60,North,-999,-999.0,-999.0,99,-99.99,,,-99.99,meteohub,2013-05-30 17:47:00,
2013-05-30 12:52:00,62.2,61.9,29.59,North,-999,-999.0,-999.0,99,-99.99,,,-99.99,meteohub,2013-05-30 17:52:00,
2013-05-30 12:57:00,62.2,61.9,29.59,North,-999,-999.0,-999.0,99,-99.99,,,-99.99,meteohub,2013-05-30 17:57:00,
2013-05-30 13:02:00,62.2,61.9,29.60,North,-999,-999.0,-999.0,99,-99.99,,,-99.99,meteohub,2013-05-30 18:02:00,
2013-05-30 13:07:00,62.1,61.7,29.60,North,-999,-999.0,-999.0,99,-99.99,,,-99.99,meteohub,2013-05-30 18:07:00,
2013-05-30 13:12:00,62.1,61.7,29.62,North,-999,-999.0,-999.0,99,-99.99,,,-99.99,meteohub,2013-05-30 18:12:00,
2013-05-30 13:17:00,62.2,61.9,29.62,North,-999,-999.0,-999.0,99,-99.99,,,-99.99,meteohub,2013-05-30 18:17:00,
2013-05-30 13:22:00,62.1,61.7,29.62,North,-999,-999.0,-999.0,99,-99.99,,,-99.99,meteohub,2013-05-30 18:22:00,
2013-05-30 13:27:00,62.2,61.9,29.62,North,-999,-999.0,-999.0,99,-99.99,,,-99.99,meteohub,2013-05-30 18:27:00,
2013-05-30 13:32:00,62.1,61.7,29.61,North,-999,-999.0,-999.0,99,-99.99,,,-99.99,meteohub,2013-05-30 18:32:00,
2013-05-30 13:37:00,62.2,61.9,29.56,North,-999,-999.0,-999.0,99,-99.99,,,-99.99,meteohub,2013-05-30 18:37:00,
2013-05-30 13:42:00,62.4,62.1,29.58,North,-999,-999.0,-999.0,99,-99.99,,,-99.99,meteohub,2013-05-30 18:42:00,
2013-05-30 13:47:00,62.8,62.4,29.60,North,-999,-999.0,-999.0,99,-99.99,,,-99.99,meteohub,2013-05-30 18:47:00,
2013-05-30 13:52:00,63.1,62.8,29.60,North,-999,-999.0,-999.0,99,-99.99,,,-99.99,meteohub,2013-05-30 18:52:00,
2013-05-30 13:57:00,63.3,63.0,29.59,North,-999,-999.0,-999.0,99,-99.99,,,-99.99,meteohub,2013-05-30 18:57:00,
2013-05-30 14:02:00,63.3,63.0,29.59,North,-999,-999.0,-999.0,99,-99.99,,,-99.99,meteohub,2013-05-30 19:02:00,
2013-05-30 14:07:00,63.3,63.0,29.60,North,-999,-999.0,-999.0,99,-99.99,,,-99.99,meteohub,2013-05-30 19:07:00,
2013-05-30 14:12:00,63.3,63.0,29.61,North,-999,-999.0,-999.0,99,-99.99,,,-99.99,meteohub,2013-05-30 19:12:00,
2013-05-30 14:17:00,63.5,63.1,29.62,North,-999,-999.0,-999.0,99,-99.99,,,-99.99,meteohub,2013-05-30 19:17:00,
2013-05-30 14:22:00,63.9,63.5,29.63,North,-999,-999.0,-999.0,99,-99.99,,,-99.99,meteohub,2013-05-30 19:22:00,
2013-05-30 14:27:00,64.0,63.7,29.62,North,-999,-999.0,-999.0,99,-99.99,,,-99.99,meteohub,2013-05-30 19:27:00,
2013-05-30 14:32:00,64.2,63.9,29.62,North,-999,-999.0,-999.0,99,-99.99,,,-99.99,meteohub,2013-05-30 19:32:00,
2013-05-30 14:37:00,64.4,64.0,29.62,North,-999,-999.0,-999.0,99,-99.99,,,-99.99,meteohub,2013-05-30 19:37:00,
2013-05-30 14:42:00,64.6,64.2,29.62,North,-999,-999.0,-999.0,99,-99.99,,,-99.99,meteohub,2013-05-30 19:42:00,
2013-05-30 14:47:00,65.1,64.8,29.62,North,-999,-999.0,-999.0,99,-99.99,,,-99.99,meteohub,2013-05-30 19:47:00,
2013-05-30 14:52:00,65.7,65.3,29.61,North,-999,-999.0,-999.0,99,-99.99,,,-99.99,meteohub,2013-05-30 19:52:00,
2013-05-30 14:57:00,65.8,64.9,29.61,North,-999,-999.0,-999.0,97,-99.99,,,-99.99,meteohub,2013-05-30 19:57:00,
2013-05-30 15:02:00,65.8,64.9,29.61,North,-999,-999.0,-999.0,97,-99.99,,,-99.99,meteohub,2013-05-30 20:02:00,
2013-05-30 15:07:00,66.0,64.8,29.61,North,-999,-999.0,-999.0,96,-99.99,,,-99.99,meteohub,2013-05-30 20:07:00,
2013-05-30 15:12:00,66.2,64.9,29.60,North,-999,-999.0,-999.0,96,-99.99,,,-99.99,meteohub,2013-05-30 20:12:00,
2013-05-30 15:17:00,66.6,65.3,29.61,North,-999,-999.0,-999.0,96,-99.99,,,-99.99,meteohub,2013-05-30 20:17:00,
2013-05-30 15:22:00,67.1,65.3,29.61,North,-999,-999.0,-999.0,94,-99.99,,,-99.99,meteohub,2013-05-30 20:22:00,
2013-05-30 15:27:00,67.3,65.1,29.60,North,-999,-999.0,-999.0,93,-99.99,,,-99.99,meteohub,2013-05-30 20:27:00,
2013-05-30 15:32:00,67.5,65.1,29.59,North,-999,-999.0,-999.0,92,-99.99,,,-99.99,meteohub,2013-05-30 20:32:00,
2013-05-30 15:37:00,67.6,65.3,29.59,North,-999,-999.0,-999.0,92,-99.99,,,-99.99,meteohub,2013-05-30 20:37:00,
2013-05-30 15:42:00,67.6,64.9,29.59,North,-999,-999.0,-999.0,91,-99.99,,,-99.99,meteohub,2013-05-30 20:42:00,
2013-05-30 15:47:00,67.8,65.5,29.59,North,-999,-999.0,-999.0,92,-99.99,,,-99.99,meteohub,2013-05-30 20:47:00,
2013-05-30 15:52:00,67.8,65.1,29.59,North,-999,-999.0,-999.0,91,-99.99,,,-99.99,meteohub,2013-05-30 20:52:00,
2013-05-30 15:57:00,67.8,65.1,29.59,North,-999,-999.0,-999.0,91,-99.99,,,-99.99,meteohub,2013-05-30 20:57:00,
2013-05-30 16:02:00,68.0,65.3,29.60,North,-999,-999.0,-999.0,91,-99.99,,,-99.99,meteohub,2013-05-30 21:02:00,
2013-05-30 16:07:00,68.2,65.1,29.60,North,-999,-999.0,-999.0,90,-99.99,,,-99.99,meteohub,2013-05-30 21:07:00,
2013-05-30 16:12:00,69.3,65.8,29.60,North,-999,-999.0,-999.0,89,-99.99,,,-99.99,meteohub,2013-05-30 21:12:00,
2013-05-30 16:17:00,71.2,66.9,29.60,North,-999,-999.0,-999.0,86,-99.99,,,-99.99,meteohub,2013-05-30 21:17:00,
2013-05-30 16:22:00,73.4,67.6,29.60,North,-999,-999.0,-999.0,82,-99.99,,,-99.99,meteohub,2013-05-30 21:22:00,
2013-05-30 16:27:00,73.9,67.1,29.60,North,-999,-999.0,-999.0,79,-99.99,,,-99.99,meteohub,2013-05-30 21:27:00,
2013-05-30 16:32:00,75.0,66.2,29.60,North,-999,-999.0,-999.0,74,-99.99,,,-99.99,meteohub,2013-05-30 21:32:00,
2013-05-30 16:37:00,75.0,66.2,29.60,North,-999,-999.0,-999.0,74,-99.99,,,-99.99,meteohub,2013-05-30 21:37:00,
2013-05-30 16:42:00,75.6,66.4,29.60,North,-999,-999.0,-999.0,73,-99.99,,,-99.99,meteohub,2013-05-30 21:42:00,
2013-05-30 16:47:00,75.9,65.8,29.60,North,-999,-999.0,-999.0,71,-99.99,,,-99.99,meteohub,2013-05-30 21:47:00,
2013-05-30 16:52:00,75.7,66.0,29.60,North,-999,-999.0,-999.0,72,-99.99,,,-99.99,meteohub,2013-05-30 21:52:00,
2013-05-30 16:57:00,76.3,65.3,29.60,North,-999,-999.0,-999.0,69,-99.99,,,-99.99,meteohub,2013-05-30 21:57:00,
2013-05-30 17:02:00,76.6,65.7,29.60,North,-999,-999.0,-999.0,69,-99.99,,,-99.99,meteohub,2013-05-30 22:02:00,
2013-05-30 17:07:00,77.2,66.2,29.59,North,-999,-999.0,-999.0,69,-99.99,,,-99.99,meteohub,2013-05-30 22:07:00,
2013-05-30 17:12:00,77.7,66.4,29.60,North,-999,-999.0,-999.0,68,-99.99,,,-99.99,meteohub,2013-05-30 22:12:00,
2013-05-30 17:17:00,77.7,65.5,29.60,North,-999,-999.0,-999.0,66,-99.99,,,-99.99,meteohub,2013-05-30 22:17:00,
2013-05-30 17:22:00,77.9,65.7,29.60,North,-999,-999.0,-999.0,66,-99.99,,,-99.99,meteohub,2013-05-30 22:22:00,
2013-05-30 17:28:00,77.9,65.7,29.59,North,-999,-999.0,-999.0,66,-99.99,,,-99.99,meteohub,2013-05-30 22:28:00,
2013-05-30 17:34:00,78.6,66.4,29.59,North,-999,-999.0,-999.0,66,-99.99,,,-99.99,meteohub,2013-05-30 22:34:00,
2013-05-30 17:40:00,79.5,65.8,29.59,North,-999,-999.0,-999.0,63,-99.99,,,-99.99,meteohub,2013-05-30 22:40:00,
2013-05-30 17:46:00,79.5,66.2,29.59,North,-999,-999.0,-999.0,64,-99.99,,,-99.99,meteohub,2013-05-30 22:46:00,
2013-05-30 17:52:00,79.0,65.8,29.60,North,-999,-999.0,-999.0,64,-99.99,,,-99.99,meteohub,2013-05-30 22:52:00,
2013-05-30 17:57:00,78.8,65.7,29.60,North,-999,-999.0,-999.0,64,-99.99,,,-99.99,meteohub,2013-05-30 22:57:00,
2013-05-30 18:02:00,80.1,66.7,29.60,North,-999,-999.0,-999.0,64,-99.99,,,-99.99,meteohub,2013-05-30 23:02:00,
2013-05-30 18:07:00,80.6,65.8,29.60,North,-999,-999.0,-999.0,61,-99.99,,,-99.99,meteohub,2013-05-30 23:07:00,
2013-05-30 18:12:00,80.6,65.8,29.61,North,-999,-999.0,-999.0,61,-99.99,,,-99.99,meteohub,2013-05-30 23:12:00,
2013-05-30 18:17:00,79.7,66.0,29.61,North,-999,-999.0,-999.0,63,-99.99,,,-99.99,meteohub,2013-05-30 23:17:00,
2013-05-30 18:22:00,79.3,65.7,29.61,North,-999,-999.0,-999.0,63,-99.99,,,-99.99,meteohub,2013-05-30 23:22:00,
2013-05-30 18:28:00,79.2,65.8,29.62,North,-999,-999.0,-999.0,64,-99.99,,,-99.99,meteohub,2013-05-30 23:28:00,
2013-05-30 18:34:00,79.3,66.0,29.61,North,-999,-999.0,-999.0,64,-99.99,,,-99.99,meteohub,2013-05-30 23:34:00,
2013-05-30 18:40:00,79.5,65.8,29.61,North,-999,-999.0,-999.0,63,-99.99,,,-99.99,meteohub,2013-05-30 23:40:00,
2013-05-30 18:46:00,78.8,65.7,29.61,North,-999,-999.0,-999.0,64,-99.99,,,-99.99,meteohub,2013-05-30 23:46:00,
2013-05-30 18:52:00,79.3,66.0,29.61,North,-999,-999.0,-999.0,64,-99.99,,,-99.99,meteohub,2013-05-30 23:52:00,
2013-05-30 18:57:00,78.8,65.7,29.61,North,-999,-999.0,-999.0,64,-99.99,,,-99.99,meteohub,2013-05-30 23:57:00,
2013-05-30 19:02:00,78.8,65.7,29.62,North,-999,-999.0,-999.0,64,-99.99,,,-99.99,meteohub,2013-05-31 00:02:00,
2013-05-30 19:07:00,77.0,65.1,29.61,North,-999,-999.0,-999.0,67,-99.99,,,-99.99,meteohub,2013-05-31 00:07:00,
2013-05-30 19:12:00,75.4,65.7,29.61,North,-999,-999.0,-999.0,72,-99.99,,,-99.99,meteohub,2013-05-31 00:12:00,
2013-05-30 19:17:00,74.3,65.5,29.61,North,-999,-999.0,-999.0,74,-99.99,,,-99.99,meteohub,2013-05-31 00:17:00,
2013-05-30 19:22:00,73.8,65.7,29.61,North,-999,-999.0,-999.0,76,-99.99,,,-99.99,meteohub,2013-05-31 00:22:00,
2013-05-30 19:27:00,73.6,65.5,29.62,North,-999,-999.0,-999.0,76,-99.99,,,-99.99,meteohub,2013-05-31 00:27:00,
2013-05-30 19:32:00,73.0,66.6,29.62,North,-999,-999.0,-999.0,80,-99.99,,,-99.99,meteohub,2013-05-31 00:32:00,
2013-05-30 19:37:00,72.5,66.7,29.62,North,-999,-999.0,-999.0,82,-99.99,,,-99.99,meteohub,2013-05-31 00:37:00,
2013-05-30 19:42:00,72.0,66.6,29.62,North,-999,-999.0,-999.0,83,-99.99,,,-99.99,meteohub,2013-05-31 00:42:00,
2013-05-30 19:47:00,71.2,66.2,29.63,North,-999,-999.0,-999.0,84,-99.99,,,-99.99,meteohub,2013-05-31 00:47:00,
2013-05-30 19:52:00,70.9,66.6,29.64,North,-999,-999.0,-999.0,86,-99.99,,,-99.99,meteohub,2013-05-31 00:52:00,
2013-05-30 19:57:00,70.7,66.6,29.64,North,-999,-999.0,-999.0,87,-99.99,,,-99.99,meteohub,2013-05-31 00:57:00,
2013-05-30 20:02:00,70.3,66.2,29.65,North,-999,-999.0,-999.0,87,-99.99,,,-99.99,meteohub,2013-05-31 01:02:00,
2013-05-30 20:07:00,70.2,66.4,29.65,North,-999,-999.0,-999.0,88,-99.99,,,-99.99,meteohub,2013-05-31 01:07:00,
2013-05-30 20:12:00,69.6,66.2,29.65,North,-999,-999.0,-999.0,89,-99.99,,,-99.99,meteohub,2013-05-31 01:12:00,
2013-05-30 20:17:00,69.3,66.2,29.65,North,-999,-999.0,-999.0,90,-99.99,,,-99.99,meteohub,2013-05-31 01:17:00,
2013-05-30 20:22:00,68.9,66.2,29.65,North,-999,-999.0,-999.0,91,-99.99,,,-99.99,meteohub,2013-05-31 01:22:00,
2013-05-30 20:27:00,68.7,66.0,29.65,North,-999,-999.0,-999.0,91,-99.99,,,-99.99,meteohub,2013-05-31 01:27:00,
2013-05-30 20:32:00,68.4,66.0,29.66,North,-999,-999.0,-999.0,92,-99.99,,,-99.99,meteohub,2013-05-31 01:32:00,
2013-05-30 20:38:00,68.2,65.8,29.67,North,-999,-999.0,-999.0,92,-99.99,,,-99.99,meteohub,2013-05-31 01:38:00,
2013-05-30 20:44:00,68.0,65.8,29.68,North,-999,-999.0,-999.0,93,-99.99,,,-99.99,meteohub,2013-05-31 01:44:00,
2013-05-30 20:50:00,67.8,65.7,29.67,North,-999,-999.0,-999.0,93,-99.99,,,-99.99,meteohub,2013-05-31 01:50:00,
2013-05-30 20:56:00,67.5,65.7,29.67,North,-999,-999.0,-999.0,94,-99.99,,,-99.99,meteohub,2013-05-31 01:56:00,
2013-05-30 21:02:00,67.1,65.7,29.67,North,-999,-999.0,-999.0,95,-99.99,,,-99.99,meteohub,2013-05-31 02:02:00,
2013-05-30 21:08:00,66.7,65.8,29.65,North,-999,-999.0,-999.0,97,-99.99,,,-99.99,meteohub,2013-05-31 02:08:00,
2013-05-30 21:14:00,66.4,65.5,29.66,North,-999,-999.0,-999.0,97,-99.99,,,-99.99,meteohub,2013-05-31 02:14:00,
2013-05-30 21:20:00,66.0,65.5,29.66,North,-999,-999.0,-999.0,98,-99.99,,,-99.99,meteohub,2013-05-31 02:20:00,
2013-05-30 21:26:00,65.8,65.3,29.66,North,-999,-999.0,-999.0,98,-99.99,,,-99.99,meteohub,2013-05-31 02:26:00,
2013-05-30 21:32:00,65.8,65.5,29.67,North,-999,-999.0,-999.0,99,-99.99,,,-99.99,meteohub,2013-05-31 02:32:00,
2013-05-30 21:37:00,65.8,65.5,29.66,North,-999,-999.0,-999.0,99,-99.99,,,-99.99,meteohub,2013-05-31 02:37:00,
2013-05-30 21:42:00,65.8,65.5,29.67,North,-999,-999.0,-999.0,99,-99.99,,,-99.99,meteohub,2013-05-31 02:42:00,
2013-05-30 21:47:00,65.7,65.3,29.67,North,-999,-999.0,-999.0,99,-99.99,,,-99.99,meteohub,2013-05-31 02:47:00,
2013-05-30 21:52:00,65.5,65.1,29.68,North,-999,-999.0,-999.0,99,-99.99,,,-99.99,meteohub,2013-05-31 02:52:00,
2013-05-30 21:57:00,65.5,65.1,29.69,North,-999,-999.0,-999.0,99,-99.99,,,-99.99,meteohub,2013-05-31 02:57:00,
2013-05-30 22:02:00,65.3,64.9,29.69,North,-999,-999.0,-999.0,99,-99.99,,,-99.99,meteohub,2013-05-31 03:02:00,
2013-05-30 22:07:00,65.1,64.8,29.69,North,-999,-999.0,-999.0,99,-99.99,,,-99.99,meteohub,2013-05-31 03:07:00,
2013-05-30 22:12:00,65.1,64.8,29.69,North,-999,-999.0,-999.0,99,-99.99,,,-99.99,meteohub,2013-05-31 03:12:00,
2013-05-30 22:17:00,65.1,64.8,29.69,North,-999,-999.0,-999.0,99,-99.99,,,-99.99,meteohub,2013-05-31 03:17:00,
2013-05-30 22:22:00,65.1,64.8,29.67,North,-999,-999.0,-999.0,99,-99.99,,,-99.99,meteohub,2013-05-31 03:22:00,
2013-05-30 22:27:00,65.1,64.8,29.68,North,-999,-999.0,-999.0,99,-99.99,,,-99.99,meteohub,2013-05-31 03:27:00,
2013-05-30 22:32:00,65.3,64.9,29.68,North,-999,-999.0,-999.0,99,-99.99,,,-99.99,meteohub,2013-05-31 03:32:00,
2013-05-30 22:37:00,65.1,64.8,29.65,North,-999,-999.0,-999.0,99,-99.99,,,-99.99,meteohub,2013-05-31 03:37:00,
2013-05-30 22:42:00,65.3,64.9,29.64,North,-999,-999.0,-999.0,99,-99.99,,,-99.99,meteohub,2013-05-31 03:42:00,
2013-05-30 22:47:00,65.3,64.9,29.65,North,-999,-999.0,-999.0,99,-99.99,,,-99.99,meteohub,2013-05-31 03:47:00,
2013-05-30 22:52:00,65.5,65.1,29.66,North,-999,-999.0,-999.0,99,-99.99,,,-99.99,meteohub,2013-05-31 03:52:00,
2013-05-30 22:57:00,65.5,65.1,29.67,North,-999,-999.0,-999.0,99,-99.99,,,-99.99,meteohub,2013-05-31 03:57:00,
2013-05-30 23:02:00,65.5,65.1,29.67,North,-999,-999.0,-999.0,99,-99.99,,,-99.99,meteohub,2013-05-31 04:02:00,
2013-05-30 23:03:00,65.5,65.1,29.67,North,-999,-999.0,-999.0,99,-99.99,,,-99.99,meteohub,2013-05-31 04:03:00,
2013-05-30 23:06:00,65.5,65.1,29.66,North,-999,-999.0,-999.0,99,-99.99,,,-99.99,meteohub,2013-05-31 04:06:00,
2013-05-30 23:07:00,65.5,65.1,29.66,North,-999,-999.0,-999.0,99,-99.99,,,-99.99,meteohub,2013-05-31 04:07:00,
2013-05-30 23:12:00,65.5,65.1,29.67,North,-999,-999.0,-999.0,99,-99.99,,,-99.99,meteohub,2013-05-31 04:12:00,
2013-05-30 23:18:00,65.5,65.1,29.67,North,-999,-999.0,-999.0,99,-99.99,,,-99.99,meteohub,2013-05-31 04:18:00,
2013-05-30 23:24:00,65.5,65.1,29.68,North,-999,-999.0,-999.0,99,-99.99,,,-99.99,meteohub,2013-05-31 04:24:00,
2013-05-30 23:30:00,65.5,65.1,29.68,North,-999,-999.0,-999.0,99,-99.99,,,-99.99,meteohub,2013-05-31 04:30:00,
2013-05-30 23:36:00,65.7,65.3,29.68,North,-999,-999.0,-999.0,99,-99.99,,,-99.99,meteohub,2013-05-31 04:36:00,
2013-05-30 23:42:00,65.7,65.3,29.69,North,-999,-999.0,-999.0,99,-99.99,,,-99.99,meteohub,2013-05-31 04:42:00,
2013-05-30 23:47:00,65.7,65.3,29.69,North,-999,-999.0,-999.0,99,-99.99,,,-99.99,meteohub,2013-05-31 04:47:00,
2013-05-30 23:52:00,65.7,65.3,29.69,North,-999,-999.0,-999.0,99,-99.99,,,-99.99,meteohub,2013-05-31 04:52:00,
2013-05-30 23:57:00,65.7,65.3,29.68,North,-999,-999.0,-999.0,99,-99.99,,,-99.99,meteohub,2013-05-31 04:57:00,